Location: Unspecified
(35.6961°N, 0.0000°E)
Time: 08:10:50
(UTC+00:00)

Vanguard 3 - Pass Details

Date: 31 May 2019
Orbit: 508 x 3263 km, 33.3° (Epoch: 25 June)

Event Time Altitude Azimuth Distance (km) Brightness Sun altitude
Rises 17:16:26 0° 218° (SW) 2,592 10.1 20.7°
Reaches altitude 10° 17:18:54 10° 200° (SSW) 1,721 9.0 20.2°
Maximum altitude 17:21:42 20° 150° (SSE) 1,303 8.0 19.6°
Drops below altitude 10° 17:24:58 10° 102° (ESE) 2,045 8.7 19.0°
Sets 17:28:16 0° 86° (E) 3,278 9.7 18.3°
